DW5349 Weather Reports


time (UTC)temp
C
wind
direction
speed
KPH
gust
KPH
rain 1hr
cm
rain 24hr
cm
rain mn
cm
humidity
%
barometer
mb
20260510012945 20 161 0.0 0.0 0.00 2.21 2.21 1 1011.9
20260510010816 20 163 0.0 0.0 0.00 2.21 2.21 1 1011.7
20260510005756 20 183 0.0 0.0 0.00 2.21 2.21 1 1011.8
20260510004816 20 142 0.0 0.0 0.00 2.18 2.21 1 1011.8
20260510003835 20 145 0.0 0.0 0.00 2.18 2.18 1 1011.8
20260510002818 20 200 0.0 0.0 0.00 2.18 2.18 1 1011.9
20260510001822 20 177 0.0 0.0 0.00 2.18 2.18 1 1011.7
20260510000807 20 132 0.0 0.0 0.00 2.18 2.18 1 1011.6
20260509235739 20 195 0.0 0.0 0.00 2.18 2.18 1 1011.8
20260509234720 20 137 0.0 0.0 0.15 2.18 2.18 1 1011.6
20260509233739 20 172 0.0 0.0 0.36 2.13 2.18 1 1011.7
20260509232727 20 183 0.0 0.0 0.00 2.13 2.13 1 1012.1
20260509230522 20 176 0.0 0.0 0.00 2.11 2.11 1 1012.1
20260509225542 20 179 0.0 0.0 0.00 2.08 2.11 1 1011.6
20260509224509 20 208 0.0 0.0 0.00 2.08 2.08 1 1011.7
20260509223500 20 207 0.0 0.0 0.00 2.08 2.08 1 1011.5
20260509222424 20 181 0.0 0.0 0.00 2.08 2.08 1 1010.9
20260509221414 20 181 0.0 0.0 0.00 2.08 2.08 1 1010.6
20260509220422 20 182 0.0 0.0 0.00 2.08 2.08 1 1011.0
20260509215352 20 208 0.0 0.0 0.00 2.06 2.06 1 1011.2
20260509213228 20 181 0.0 0.0 0.00 2.06 2.06 1 1010.8
20260509212239 20 182 0.0 0.0 0.00 2.06 2.06 1 1010.9
20260509211224 20 177 0.0 0.0 0.00 2.06 2.06 1 1010.7
20260509210234 20 228 0.0 0.0 0.00 2.06 2.06 1 1010.5
20260509204132 20 197 0.0 0.0 0.00 2.06 2.06 1 1010.4
20260509203139 20 198 0.0 0.0 0.18 2.06 2.06 1 1011.1
20260509202110 20 198 0.0 0.0 0.15 2.03 2.03 1 1011.4
20260509200029 20 198 0.0 0.0 0.25 1.96 1.98 1 1011.8
20260509195037 20 197 0.0 0.0 0.23 1.93 1.96 1 1011.7
20260509194015 20 94 0.0 0.0 0.36 1.85 1.88 1 1011.8
20260509193014 20 213 0.0 0.0 0.15 1.83 1.85 1 1012.3
20260509192023 20 212 0.0 0.0 0.10 1.80 1.83 1 1012.6
20260509190951 20 212 0.0 0.0 0.00 1.80 1.80 1 1012.5
20260509185916 20 142 0.0 0.0 0.10 1.78 1.78 1 1012.2
20260509184928 19 194 0.0 0.0 0.23 1.78 1.78 1 1012.3
20260509183919 20 147 0.0 0.0 0.41 1.68 1.73 1 1011.9
20260509182913 20 155 0.0 0.0 0.20 1.68 1.68 1 1012.3
20260509181857 20 146 0.0 0.0 0.18 1.65 1.65 1 1011.8
20260509180846 19 139 0.0 0.0 0.23 1.57 1.63 1 1012.4
20260509175840 19 173 0.0 0.0 0.18 1.57 1.57 1 1012.1
20260509174818 19 142 0.0 0.0 0.15 1.55 1.55 1 1012.0
20260509173742 19 95 0.0 0.0 0.30 1.50 1.50 1 1012.4
20260509172728 20 134 0.0 0.0 0.33 1.45 1.47 1 1012.7
20260509171739 19 92 0.0 0.0 0.97 1.30 1.40 1 1013.0
20260509170715 19 159 0.0 0.0 0.53 1.19 1.24 1 1013.5
20260509165713 19 44 0.0 0.0 1.35 1.02 1.17 1 1012.5
20260509163507 18 58 0.0 0.0 0.33 0.81 0.84 1 1013.1
20260509162436 18 153 0.0 0.0 0.25 0.79 0.79 1 1013.0
20260509161403 18 80 0.0 0.0 0.28 0.74 0.74 1 1013.1
20260509160403 18 85 0.0 0.0 0.74 0.56 0.66 1 1013.6
20260509155407 18 105 0.0 0.0 0.66 0.41 0.48 1 1013.4
20260509152109 18 75 0.0 0.0 0.00 0.33 0.33 1 1013.1
20260509151124 18 63 0.0 0.0 0.00 0.33 0.33 1 1013.0
20260509150111 18 37 0.0 0.0 0.00 0.33 0.33 1 1013.0
20260509145100 19 52 0.0 0.0 0.00 0.33 0.33 1 1012.5
20260509144106 19 68 0.0 0.0 0.15 0.33 0.33 1 1012.9
20260509143105 20 27 0.0 0.0 0.20 0.30 0.30 1 1013.1
20260509142028 20 65 0.0 0.0 0.41 0.25 0.28 1 1013.3
20260509135857 20 41 0.0 0.0 0.00 0.00 0.00 1 1013.4